This demonstration page uses our WeatherBlox Daily Observations layout. Learn more.

Left ArrowRight Arrow

Hourly Observations for April 19, 2022

Temp ( °F °C ) Dew Point ( °F °C ) Humidity (%) Winds ( mph kmh ) Pressure ( in mb ) Visibility ( mi km ) Precip ( " mm )
12:52 am 00:52 Clear 36 2.2 27 -2.8 70 70 Calm 30.32 1027 10 16 0.00 0.00
1:52 am 01:52 Clear 34 1.1 27 -2.8 76 76 Calm 30.31 1026 10 16 0.00 0.00
2:52 am 02:52 Clear 33 0.6 27 -2.8 78 78 Calm 30.30 1026 10 16 0.00 0.00
3:52 am 03:52 Clear 32 0 25 -3.9 75 75 Calm 30.30 1026 10 16 0.00 0.00
4:52 am 04:52 Clear 37 2.8 22 -5.6 54 54 ENE 7 11 30.29 1026 10 16 0.00 0.00
5:52 am 05:52 Clear 35 1.7 23 -5 61 61 E 5 7 30.28 1026 10 16 0.00 0.00
6:52 am 06:52 Sunny 35 1.7 22 -5.6 59 59 E 8 13 30.28 1025 10 16 0.00 0.00
7:52 am 07:52 Sunny 39 3.9 26 -3.3 60 60 ESE 8 13 30.30 1026 10 16 0.00 0.00
8:52 am 08:52 Sunny 44 6.7 23 -5 43 43 ESE 9 15 30.31 1026 10 16 0.00 0.00
9:52 am 09:52 Sunny 47 8.3 23 -5 39 39 SE 6 9 30.31 1026 10 16 0.00 0.00
10:52 am 10:52 Sunny 50 10 23 -5 35 35 SE 6 9 30.30 1026 10 16 0.00 0.00
11:52 am 11:52 Sunny 53 11.7 22 -5.6 30 30 VRB 5 7 30.29 1026 10 16 0.00 0.00
12:52 pm 12:52 Sunny 55 12.8 24 -4.4 30 30 SE 8 13 30.24 1024 10 16 0.00 0.00
1:52 pm 13:52 Sunny 58 14.4 23 -5 26 26 SSE 10 17 30.20 1023 10 16 0.00 0.00
2:52 pm 14:52 Mostly Sunny 60 15.6 24 -4.4 25 25 SE 9 15 30.16 1021 10 16 0.00 0.00
3:52 pm 15:52 Mostly Sunny 61 16.1 24 -4.4 24 24 SSE 13 20 30.12 1020 10 16 0.00 0.00
4:52 pm 16:52 Partly Cloudy 62 16.7 25 -3.9 24 24 SSE 16 26 30.06 1018 10 16 0.00 0.00
5:52 pm 17:52 Mostly Cloudy 61 16.1 24 -4.4 24 24 ESE 15 24 30.05 1018 10 16 0.00 0.00
6:52 pm 18:52 Mostly Cloudy 59 15 23 -5 25 25 ESE 17 28 30.02 1017 10 16 0.00 0.00
7:52 pm 19:52 Sunny 58 14.4 26 -3.3 29 29 ESE 13 20 30.01 1016 10 16 0.00 0.00
8:52 pm 20:52 Clear 58 14.4 26 -3.3 29 29 SE 17 28 29.99 1016 10 16 0.00 0.00
9:52 pm 21:52 Clear 57 13.9 28 -2.2 33 33 SE 17 28 29.99 1016 10 16 0.00 0.00
10:52 pm 22:52 Clear 55 12.8 30 -1.1 38 38 SSE 16 26 30.02 1017 10 16 0.00 0.00

Powered by AerisWeather